Total_Precipitation_Accumulation
2.39 2.46 2.39 2.30 2.13 2.01 1.86 1.79 1.72 1.65 1.64 1.65 1.69 1.72 1.74 1.73 1.74 1.74 1.64 1.64 1.71 1.88 1.98 2.03 2.07 2.11 2.20 2.19 2.21 2.27 2.38 2.54 2.66 2.51 2.33 2.25 2.25 2.15 2.02 1.81 1.70 1.70 1.66
1.97 1.98 1.96 1.92 1.84 1.73 1.63 1.55 1.57 1.59 1.56 1.58 1.58 1.56 1.62 1.72 1.76 1.68 1.57 1.53 1.62 1.74 1.87 1.98 1.95 1.92 1.97 2.04 2.10 2.08 2.12 2.28 2.44 2.44 2.30 2.16 2.14 2.13 2.07 1.97 1.65 1.50 1.48
1.71 1.70 1.70 1.81 1.79 1.70 1.67 1.67 1.66 1.61 1.57 1.52 1.45 1.46 1.52 1.58 1.59 1.55 1.48 1.47 1.50 1.56 1.65 1.68 1.71 1.75 1.71 1.74 1.79 1.85 1.84 1.87 2.07 2.14 2.10 2.04 1.97 1.93 2.01 1.98 1.78 1.79 1.44
1.71 1.65 1.53 1.54 1.61 1.67 1.64 1.60 1.54 1.49 1.50 1.54 1.50 1.43 1.40 1.34 1.25 1.21 1.22 1.28 1.30 1.30 1.36 1.35 1.38 1.49 1.54 1.61 1.57 1.63 1.69 1.82 1.90 1.96 1.93 1.90 1.89 1.78 1.86 1.90 1.86 1.73 1.53
1.83 1.73 1.61 1.52 1.55 1.61 1.57 1.51 1.44 1.38 1.28 1.34 1.40 1.33 1.19 1.04 0.91 0.92 0.98 1.01 1.09 1.13 1.16 1.10 1.06 1.21 1.35 1.35 1.26 1.39 1.56 1.74 1.80 1.82 1.77 1.70 1.64 1.73 1.73 1.68 1.70 1.69 1.59
1.88 1.97 1.97 1.86 1.81 1.75 1.59 1.49 1.48 1.48 1.41 1.31 1.25 1.20 1.09 0.87 0.86 0.83 0.91 1.05 1.14 1.11 1.15 1.14 1.03 1.06 1.11 1.08 1.03 1.17 1.39 1.48 1.57 1.70 1.73 1.68 1.63 1.67 1.71 1.70 1.74 1.79 1.77
1.96 2.03 2.00 1.93 1.88 1.82 1.60 1.48 1.51 1.52 1.49 1.41 1.26 1.21 1.18 1.09 0.95 0.81 0.82 0.95 1.07 1.09 1.11 1.12 0.97 0.90 1.01 1.04 1.05 1.05 1.14 1.16 1.28 1.55 1.71 1.65 1.65 1.74 1.86 1.81 1.91 1.91 1.80
2.02 2.00 1.92 1.77 1.74 1.68 1.60 1.58 1.54 1.48 1.45 1.39 1.29 1.19 1.11 0.92 0.78 0.68 0.68 0.80 0.99 1.07 1.08 1.11 1.14 1.06 0.96 0.98 0.98 1.02 1.10 1.16 1.14 1.21 1.46 1.54 1.56 1.70 1.83 1.90 1.99 1.92 1.80
1.94 1.85 1.76 1.64 1.64 1.54 1.51 1.46 1.42 1.35 1.32 1.26 1.15 1.09 1.05 0.91 0.70 0.58 0.63 0.79 0.98 1.02 1.01 1.00 1.06 1.06 1.01 0.93 0.97 1.10 1.18 1.21 1.05 1.07 1.17 1.28 1.35 1.48 1.58 1.69 1.93 2.08 1.93
1.68 1.48 1.40 1.43 1.50 1.38 1.30 1.26 1.23 1.24 1.22 1.12 1.01 1.02 1.03 0.98 0.83 0.69 0.69 0.78 0.93 0.96 1.00 1.00 0.94 0.94 0.96 0.93 0.98 1.12 1.19 1.20 1.11 1.10 1.27 1.37 1.35 1.45 1.52 1.64 1.91 2.00 1.87
1.50 1.39 1.35 1.29 1.27 1.24 1.24 1.24 1.17 1.12 1.17 1.17 1.13 1.06 1.00 0.90 0.76 0.66 0.67 0.66 0.79 0.88 0.92 0.97 0.94 0.89 0.86 0.90 1.01 1.06 1.10 1.09 1.22 1.37 1.42 1.44 1.46 1.51 1.52 1.56 1.77 1.91 1.94
1.42 1.37 1.40 1.29 1.10 1.15 1.33 1.29 1.24 1.26 1.25 1.20 1.15 1.07 0.91 0.81 0.67 0.59 0.60 0.63 0.69 0.84 0.94 0.95 0.89 0.86 0.84 0.88 0.96 1.02 1.03 1.10 1.29 1.47 1.52 1.48 1.41 1.39 1.42 1.44 1.60 1.75 1.81
1.42 1.41 1.32 1.22 1.27 1.26 1.31 1.31 1.25 1.22 1.13 1.01 0.96 0.92 0.82 0.72 0.62 0.54 0.56 0.61 0.69 0.76 0.82 0.84 0.80 0.82 0.85 0.98 1.04 1.07 1.15 1.34 1.46 1.50 1.54 1.50 1.39 1.33 1.33 1.30 1.40 1.59 1.60
1.49 1.46 1.32 1.20 1.18 1.20 1.22 1.20 1.11 1.05 1.00 0.92 0.86 0.82 0.78 0.75 0.67 0.61 0.60 0.60 0.64 0.70 0.73 0.77 0.84 0.89 0.95 1.08 1.21 1.31 1.35 1.39 1.37 1.46 1.51 1.44 1.31 1.27 1.32 1.32 1.41 1.52 1.56
1.39 1.25 1.13 1.00 0.95 0.98 0.97 0.94 0.93 0.85 0.81 0.79 0.73 0.68 0.73 0.72 0.64 0.62 0.59 0.55 0.57 0.60 0.64 0.82 1.06 1.13 1.21 1.29 1.33 1.38 1.43 1.36 1.28 1.29 1.37 1.39 1.36 1.30 1.27 1.25 1.37 1.43 1.50
1.25 1.05 0.90 0.82 0.78 0.69 0.67 0.69 0.66 0.63 0.62 0.60 0.60 0.56 0.53 0.53 0.50 0.47 0.48 0.50 0.51 0.58 0.66 0.89 1.03 1.10 1.19 1.23 1.25 1.27 1.30 1.32 1.25 1.21 1.22 1.22 1.20 1.19 1.22 1.19 1.24 1.37 1.44
1.02 0.85 0.70 0.65 0.66 0.64 0.62 0.70 0.73 0.58 0.52 0.50 0.52 0.51 0.51 0.49 0.45 0.48 0.52 0.55 0.60 0.71 0.82 0.97 0.99 1.05 1.13 1.11 1.11 1.12 1.14 1.15 1.10 1.09 1.08 1.06 1.04 1.03 1.11 1.14 1.12 1.15 1.15
0.70 0.60 0.54 0.57 0.56 0.53 0.52 0.59 0.66 0.74 0.72 0.61 0.53 0.51 0.48 0.50 0.49 0.51 0.60 0.66 0.75 0.86 0.93 0.96 0.97 0.97 1.02 1.02 1.02 1.02 0.98 0.94 0.92 0.95 1.01 1.02 1.02 1.00 0.99 1.00 0.98 1.00 1.06
0.52 0.52 0.49 0.47 0.44 0.42 0.41 0.44 0.47 0.57 0.69 0.74 0.69 0.63 0.59 0.62 0.63 0.64 0.69 0.74 0.83 0.88 0.87 0.89 0.93 0.92 0.91 0.97 0.97 0.89 0.84 0.82 0.83 0.84 0.86 0.90 0.93 0.90 0.89 0.85 0.83 0.82 0.91
0.45 0.41 0.43 0.42 0.42 0.42 0.40 0.41 0.45 0.52 0.60 0.67 0.70 0.68 0.69 0.77 0.83 0.81 0.78 0.75 0.77 0.80 0.79 0.78 0.77 0.77 0.81 0.85 0.82 0.76 0.72 0.73 0.74 0.76 0.78 0.78 0.78 0.79 0.80 0.76 0.74 0.77 0.83
0.37 0.34 0.36 0.35 0.38 0.40 0.42 0.46 0.50 0.51 0.57 0.65 0.68 0.67 0.72 0.78 0.85 0.83 0.82 0.78 0.73 0.75 0.77 0.72 0.67 0.66 0.68 0.72 0.72 0.70 0.68 0.68 0.68 0.72 0.73 0.72 0.71 0.71 0.67 0.65 0.65 0.66 0.68
0.38 0.39 0.36 0.34 0.35 0.38 0.42 0.49 0.58 0.62 0.62 0.63 0.65 0.62 0.63 0.65 0.73 0.77 0.78 0.73 0.68 0.67 0.66 0.66 0.60 0.59 0.61 0.65 0.66 0.65 0.63 0.63 0.66 0.70 0.69 0.66 0.67 0.67 0.65 0.63 0.63 0.64 0.64
0.42 0.39 0.39 0.38 0.34 0.36 0.38 0.44 0.53 0.59 0.61 0.64 0.63 0.58 0.57 0.59 0.63 0.66 0.66 0.59 0.50 0.48 0.51 0.59 0.61 0.57 0.54 0.54 0.53 0.55 0.55 0.57 0.61 0.65 0.66 0.62 0.63 0.61 0.59 0.59 0.58 0.63 0.66
0.42 0.42 0.47 0.51 0.45 0.41 0.41 0.43 0.47 0.49 0.50 0.55 0.59 0.56 0.56 0.60 0.59 0.56 0.54 0.46 0.40 0.40 0.41 0.45 0.51 0.52 0.49 0.48 0.48 0.47 0.48 0.49 0.50 0.51 0.52 0.54 0.58 0.55 0.54 0.55 0.56 0.58 0.62
0.39 0.44 0.48 0.49 0.49 0.47 0.43 0.41 0.43 0.44 0.46 0.51 0.55 0.53 0.50 0.51 0.52 0.52 0.49 0.46 0.42 0.41 0.41 0.41 0.42 0.43 0.42 0.42 0.42 0.40 0.43 0.46 0.45 0.43 0.42 0.44 0.47 0.48 0.51 0.56 0.58 0.60 0.60
0.29 0.34 0.42 0.46 0.48 0.47 0.42 0.40 0.42 0.44 0.45 0.45 0.47 0.46 0.45 0.45 0.48 0.49 0.48 0.46 0.43 0.42 0.40 0.38 0.38 0.38 0.40 0.43 0.42 0.41 0.38 0.36 0.36 0.40 0.40 0.43 0.47 0.49 0.52 0.56 0.55 0.59 0.64